RH
51 45 42 35 53 93 102 96 89 80 84 79 56 46 63 83 86 84 82 87 96 103 105 103 103 98 100 106 78 58 85 100 92 89 96 101 95 80 66 57 49 42 43 47 48 49 49 49 49 49 48 48 51 52 56 60 61 62 63 64 61 61 62 65 75 85 90 94 96 92 82 72 63 61 60 60 62 63 66 71 75 79 84 84 82
53 45 42 38 46 82 103 96 88 77 76 85 78 57 49 53 57 61 64 67 77 90 99 103 102 97 101 103 78 60 75 92 90 83 86 95 94 82 67 56 48 39 37 42 48 51 52 52 50 49 48 46 48 51 53 55 57 56 53 50 49 51 56 63 75 79 76 72 67 63 66 71 70 70 67 55 49 49 49 53 58 64 69 71 70
55 47 43 40 41 67 98 101 89 79 73 73 75 69 56 46 47 57 64 65 73 83 90 99 100 99 105 97 75 66 71 80 85 80 78 82 82 75 65 54 47 42 39 42 50 56 58 57 53 48 46 47 49 52 53 51 50 47 40 38 42 47 51 53 53 52 52 53 57 66 83 93 86 86 84 62 44 42 41 41 43 47 53 58 59
58 50 44 44 42 53 84 103 97 83 73 63 61 66 64 55 50 58 66 72 85 94 95 100 103 107 106 85 66 69 75 77 80 77 74 76 75 69 62 55 52 53 53 52 53 57 59 58 57 52 48 48 51 53 54 52 46 37 36 40 43 45 44 39 39 48 56 59 68 77 85 88 85 95 99 74 50 48 47 43 42 44 48 51 54
61 56 47 45 46 47 63 90 103 94 78 63 54 56 61 64 60 58 63 75 92 100 99 101 104 107 96 70 60 67 73 75 77 75 72 73 73 68 64 62 60 61 62 58 54 52 55 58 60 59 59 61 60 57 55 54 46 34 38 47 44 37 35 36 46 62 70 69 70 73 82 90 90 98 100 78 58 54 50 44 43 45 46 45 47
58 59 54 49 48 49 54 72 95 102 94 76 60 55 55 59 63 63 64 73 91 102 101 100 97 90 79 68 65 67 70 72 71 71 69 68 68 66 66 67 67 65 62 59 54 49 51 58 65 68 72 75 73 66 58 56 51 38 36 44 45 40 36 38 47 60 70 72 69 70 82 89 85 85 83 69 58 58 62 57 49 46 45 45 48
54 56 57 54 51 52 55 66 82 95 101 95 76 61 56 54 54 57 61 66 84 100 103 105 95 71 61 68 77 79 82 82 76 72 69 67 66 65 65 69 71 70 65 62 59 56 55 60 67 72 75 77 77 73 62 53 47 41 38 40 44 48 44 37 37 49 63 69 66 68 77 78 74 73 69 64 59 62 70 65 59 58 50 47 52
50 51 54 55 54 53 56 67 79 85 90 98 95 78 65 58 52 48 50 52 65 85 96 103 98 74 61 68 78 87 95 98 96 89 82 75 72 69 67 69 72 72 69 67 66 65 64 64 65 68 70 69 69 71 73 67 54 42 40 43 43 44 43 36 31 40 57 64 62 64 70 71 70 69 64 62 60 58 57 53 63 77 64 50 54
44 46 49 52 53 53 53 60 76 86 85 85 93 95 84 70 59 50 46 43 45 56 70 84 89 81 74 72 75 86 96 101 102 98 95 89 82 77 74 70 69 68 66 65 64 64 64 62 61 62 64 64 65 71 82 92 86 67 59 63 60 52 49 44 38 39 50 58 57 55 60 61 62 62 58 56 57 59 56 46 53 67 62 53 55
41 42 43 46 49 52 53 52 60 76 86 85 82 87 93 90 79 63 51 46 43 42 45 53 61 65 67 68 69 77 87 93 94 93 94 91 84 79 75 69 65 63 60 55 53 55 56 55 53 54 56 57 60 67 77 90 100 96 87 85 83 81 79 73 63 52 47 51 53 52 53 56 58 57 54 53 55 57 55 47 42 47 53 57 58
41 42 41 41 43 46 50 52 52 57 69 83 88 83 82 86 92 89 76 64 56 52 48 45 46 49 55 62 66 69 74 80 84 86 87 85 79 74 70 66 61 58 55 51 48 48 48 48 48 50 52 52 52 56 63 71 84 92 93 93 96 99 100 99 96 84 66 56 55 54 54 57 60 60 60 61 61 59 53 45 39 41 50 60 63
42 42 42 41 41 41 43 46 50 52 54 63 79 89 88 80 79 86 91 89 81 72 66 60 55 52 50 54 61 67 72 76 80 84 85 82 77 71 67 63 60 56 53 50 47 45 43 42 43 45 48 50 49 50 53 58 67 73 75 80 86 89 92 95 98 98 88 74 65 60 58 62 69 73 73 70 65 59 52 42 37 36 41 51 61
42 43 43 42 41 39 40 41 42 46 50 51 57 70 85 89 82 76 75 82 89 88 85 81 76 69 59 53 54 59 64 70 75 82 85 85 81 75 70 64 61 59 57 55 52 49 47 43 42 43 46 48 50 51 52 54 60 64 64 66 68 70 74 76 78 83 85 81 74 69 65 69 77 82 80 75 68 62 54 46 42 39 37 39 47
49 43 42 43 42 40 38 40 40 40 42 47 49 51 60 73 84 85 78 71 73 79 85 90 92 87 77 66 58 56 56 58 62 68 75 80 81 80 77 72 67 63 61 60 59 58 56 52 49 46 46 47 48 51 54 57 59 60 61 63 63 65 68 67 67 71 75 76 77 77 75 74 78 81 81 77 71 64 57 51 48 45 42 39 38
72 58 49 43 41 41 40 38 39 40 40 40 43 46 48 52 61 72 81 82 79 75 73 77 84 89 91 87 78 69 62 58 56 56 58 63 68 72 74 74 72 70 68 64 61 60 59 57 54 50 48 48 48 47 49 53 57 57 57 59 61 65 67 66 66 68 72 75 79 81 78 74 72 74 79 79 73 67 58 52 51 50 48 46 43
87 80 71 59 46 39 39 39 39 39 41 41 39 41 43 46 49 53 60 69 78 84 83 77 74 72 77 85 89 87 82 75 68 63 59 56 57 59 63 67 70 72 72 70 67 64 62 59 56 54 52 50 50 49 48 49 49 49 49 51 54 57 59 62 64 68 73 78 82 81 76 71 66 65 71 77 75 69 61 55 54 54 54 53 50
82 84 83 78 65 51 42 38 38 38 39 41 41 41 40 40 43 46 48 50 55 66 77 84 85 78 71 71 73 77 81 82 80 76 73 70 67 63 61 62 65 69 73 75 74 72 69 65 62 59 58 56 54 53 52 53 53 52 51 50 51 53 54 55 57 62 67 71 77 79 76 72 68 65 66 72 74 70 65 62 59 58 58 58 55
80 82 84 82 76 69 59 49 42 38 37 38 40 41 41 40 39 38 41 44 46 48 53 62 72 77 81 81 77 73 70 69 71 72 74 76 78 78 75 72 69 68 71 74 76 77 76 73 69 65 63 61 60 58 56 55 56 58 58 58 58 58 57 55 54 57 59 61 65 68 70 71 72 72 70 70 72 70 67 65 63 60 58 59 59
81 85 85 84 83 79 74 68 59 47 39 37 38 38 40 41 40 37 36 37 41 44 45 46 49 52 61 71 78 81 80 74 71 69 68 68 71 75 78 80 79 76 74 74 75 75 76 75 74 72 68 65 62 59 57 56 55 55 55 57 58 60 60 59 58 58 57 58 60 63 68 70 73 78 78 76 74 71 69 67 64 61 59 60 60
81 88 87 83 84 85 83 79 74 63 49 41 37 37 38 40 40 39 38 37 37 38 39 41 43 44 45 49 55 64 71 75 77 77 75 72 70 70 70 72 75 78 80 82 82 81 79 77 76 75 73 71 68 63 59 55 52 51 51 52 54 55 57 57 57 58 56 56 58 63 70 72 73 79 83 83 80 73 71 67 63 60 58 59 58
75 82 89 84 79 84 88 86 82 74 62 52 44 38 37 37 38 38 39 39 38 38 38 37 38 39 41 43 44 46 50 55 60 64 67 69 72 75 77 76 75 75 76 79 81 83 84 84 83 82 79 76 74 70 66 61 55 49 46 45 46 48 51 52 52 53 51 51 53 59 66 69 74 83 86 84 81 75 72 68 62 59 56 55 54
73 72 81 86 82 82 87 90 90 85 77 68 55 44 39 38 38 38 38 38 38 38 39 39 39 38 38 38 39 40 42 44 45 47 50 53 58 65 71 74 75 76 76 77 77 78 78 79 80 81 81 81 79 74 70 66 61 57 52 47 43 41 42 43 44 45 45 46 47 50 55 58 65 77 84 81 75 71 71 68 60 56 55 54 52
75 70 70 76 79 81 84 88 92 93 91 86 73 56 46 41 40 39 38 37 38 39 39 40 39 38 38 37 36 37 38 40 41 42 43 44 46 49 52 55 58 61 65 69 72 74 76 77 76 75 75 76 76 75 74 71 68 65 62 58 53 47 44 42 42 41 41 42 43 43 45 46 49 59 69 71 68 65 65 64 58 53 51 51 54
65 68 69 68 70 76 82 85 89 94 96 96 89 73 56 46 43 43 42 40 39 39 41 43 43 40 39 38 38 36 35 36 38 39 40 41 41 42 43 44 45 46 48 51 55 61 68 76 81 82 79 76 72 69 68 70 71 71 69 66 63 58 54 52 49 48 45 44 44 42 41 40 40 44 49 52 55 57 59 58 52 49 48 50 56
54 54 65 65 62 68 76 81 86 91 96 98 95 86 68 51 46 47 49 46 42 40 41 43 46 45 43 41 40 37 36 36 36 36 36 36 37 38 39 40 41 42 42 44 45 48 54 64 75 83 87 87 84 81 76 72 69 68 67 67 66 64 61 59 56 54 51 49 47 45 43 41 39 40 39 40 43 48 52 51 47 48 52 53 56
55 44 58 64 59 58 64 73 81 85 92 98 99 96 81 60 49 51 55 53 48 43 42 43 44 46 47 45 43 41 39 38 36 34 33 33 33 34 34 35 36 36 37 39 42 45 48 53 61 70 80 89 93 96 96 93 88 82 76 70 67 64 62 61 60 58 57 55 53 51 49 47 44 42 39 37 37 41 46 47 46 47 52 53 56
65 46 55 65 64 61 60 65 75 81 88 96 101 103 94 73 56 53 56 57 53 48 45 45 46 46 47 48 46 45 44 41 37 34 32 32 32 31 30 31 32 38 44 42 37 37 41 46 51 58 66 79 92 101 104 104 104 102 98 93 88 82 76 71 68 66 63 60 58 57 55 54 53 50 47 42 38 37 41 45 46 46 48 53 59
76 53 57 69 67 64 61 60 69 79 86 93 98 103 100 84 66 57 58 62 61 57 53 51 50 48 45 46 47 47 46 42 39 37 34 32 32 31 30 30 32 45 64 70 56 43 39 38 41 46 51 58 70 85 96 101 104 104 103 103 102 100 97 94 90 87 83 78 74 71 66 63 62 60 58 54 47 42 42 46 49 49 50 55 62
85 57 54 69 69 63 59 61 73 83 86 90 92 96 97 88 72 61 60 67 70 68 65 60 57 53 49 48 49 48 46 42 38 36 34 32 32 31 30 31 33 38 58 83 89 79 69 62 52 43 42 44 47 55 66 77 88 95 100 102 102 102 101 101 100 99 99 97 95 93 90 87 84 81 78 74 66 57 52 51 54 56 59 64 70
90 60 46 60 69 63 56 63 80 90 91 89 88 88 89 87 78 65 59 64 71 72 70 67 63 59 57 58 58 56 52 46 40 35 32 31 32 31 31 38 45 40 41 68 99 105 98 94 85 67 50 41 39 41 44 49 56 65 75 84 91 97 101 102 102 102 102 102 101 101 101 99 98 98 97 96 92 85 77 73 72 75 80 84 88
91 60 38 48 64 63 55 60 76 89 93 93 89 86 87 87 84 73 62 62 68 70 69 68 66 63 63 64 66 65 60 52 44 36 32 31 31 31 31 34 39 36 30 43 74 96 103 105 104 96 76 55 42 40 40 41 43 45 49 54 60 69 77 84 90 93 96 97 98 100 102 102 101 101 101 100 101 100 97 97 96 97 98 99 102
92 59 32 38 57 62 56 55 68 84 93 95 93 90 90 89 87 81 71 66 69 71 71 70 68 66 66 66 67 68 63 55 46 38 33 31 31 32 32 31 31 31 27 26 41 68 91 100 98 92 84 73 62 54 49 47 48 49 50 52 54 56 59 63 68 72 75 78 81 83 87 90 93 96 99 102 103 102 101 103 104 103 102 101 104
95 61 29 32 49 58 55 53 64 82 90 94 97 96 93 89 86 82 76 70 70 72 71 71 70 69 68 67 68 69 66 58 49 41 35 33 32 33 33 38 49 51 45 45 56 70 82 88 85 79 79 81 79 72 66 65 68 72 75 76 77 78 78 79 82 83 83 82 80 77 74 71 70 73 78 86 93 97 100 102 103 102 103 104 105
95 60 29 30 43 52 54 51 59 78 91 97 101 98 93 88 83 81 76 71 70 69 68 69 69 69 69 68 69 71 70 66 56 47 41 36 35 37 35 40 58 72 74 82 91 91 88 90 91 86 84 87 88 85 81 80 83 89 95 95 95 96 95 93 91 89 88 88 87 85 84 79 72 68 66 66 70 77 84 92 99 103 106 106 105
95 58 27 28 38 47 53 46 50 74 94 101 103 99 94 89 85 82 77 74 71 68 69 70 68 68 69 69 70 72 73 71 64 54 47 41 39 39 38 43 56 70 83 97 102 99 97 101 103 101 97 96 96 96 93 90 89 92 97 100 99 96 93 87 80 75 75 75 75 80 89 90 83 77 76 73 70 69 72 81 92 102 108 106 103
94 56 26 27 35 45 50 42 46 73 94 100 103 102 98 94 90 85 79 77 76 71 70 73 71 69 69 69 69 71 72 74 72 61 49 44 41 39 41 50 53 50 58 77 93 100 101 100 100 103 105 103 101 100 98 95 94 95 97 97 94 88 82 77 72 67 66 66 65 69 80 86 80 75 75 77 78 77 76 76 82 93 103 107 107
91 53 26 28 34 44 50 40 44 70 91 99 104 105 103 99 95 90 83 80 80 75 70 71 70 67 67 68 68 66 69 74 75 67 52 43 41 39 40 45 45 40 44 58 73 87 97 101 103 102 99 97 98 101 103 103 100 98 97 96 92 88 84 79 76 73 70 69 69 68 71 74 71 68 68 71 74 77 79 79 79 83 92 102 109
91 50 25 29 35 45 51 41 44 68 90 100 104 104 104 103 98 92 86 79 77 76 72 68 65 60 60 66 66 62 64 71 72 65 52 42 40 40 39 40 38 39 44 49 54 63 73 86 97 97 91 87 87 91 96 100 102 101 100 99 97 96 94 90 86 83 79 77 76 74 72 70 67 63 63 65 66 69 75 78 80 82 86 94 102
88 47 24 30 37 46 51 43 48 73 93 102 105 103 104 105 100 93 86 76 71 73 70 64 60 57 56 61 63 60 62 67 70 63 50 41 38 37 37 38 37 37 39 41 45 47 47 52 62 69 72 74 79 85 88 91 98 103 104 103 102 101 101 99 96 94 93 90 88 86 82 78 74 67 63 61 60 62 67 72 75 79 84 91 95
84 44 24 31 39 49 55 49 53 74 89 98 105 106 105 105 102 95 86 75 70 70 65 57 55 58 59 58 60 63 65 68 70 63 49 39 38 38 37 36 35 35 35 37 39 39 40 42 43 45 49 57 65 72 74 76 85 95 100 102 102 102 102 101 99 96 94 92 89 85 82 78 74 68 63 59 57 56 57 61 64 68 75 85 93
80 38 24 32 41 53 58 51 55 74 87 96 104 106 106 105 102 99 89 74 68 69 63 53 51 58 62 62 63 66 70 73 73 65 51 39 36 36 36 36 35 34 34 35 34 34 40 48 54 56 52 49 51 55 54 56 61 68 74 77 79 80 80 78 75 70 67 65 63 61 62 63 63 62 60 57 56 54 51 50 53 57 61 70 83
73 33 23 31 39 51 55 52 61 77 88 97 104 105 106 106 104 102 92 75 66 66 64 58 54 57 65 70 70 70 74 80 80 68 52 41 37 37 35 34 35 34 35 36 36 37 41 49 61 66 54 42 41 42 41 43 45 47 50 52 53 55 54 52 50 48 45 46 46 46 48 50 51 52 52 51 50 51 51 47 47 50 53 58 65
64 29 24 29 36 48 52 53 67 81 87 98 105 103 104 107 107 103 93 79 69 65 67 68 66 67 74 78 76 73 78 86 84 72 55 42 38 38 37 37 37 35 35 35 36 39 44 47 51 52 43 37 38 37 35 38 40 40 41 41 41 42 43 42 41 40 39 40 41 41 42 43 44 44 45 45 44 46 50 50 49 49 50 52 54
53 27 26 27 32 44 47 49 63 78 90 100 103 101 101 105 107 104 94 82 72 64 66 72 75 79 84 86 81 77 80 88 86 73 57 44 38 38 37 38 38 36 35 36 35 40 46 45 41 38 36 36 37 37 38 41 42 43 42 40 39 39 38 38 37 36 37 37 38 39 40 40 42 43 42 42 42 42 45 48 51 53 52 52 52
42 26 29 28 33 45 47 47 57 72 89 100 100 100 100 101 104 103 95 86 75 64 63 69 75 80 84 86 84 81 83 90 88 75 58 44 39 39 37 37 37 35 34 34 33 36 39 37 35 35 35 34 33 35 39 41 42 44 44 42 41 41 39 40 39 39 39 38 38 39 40 41 42 43 43 42 42 42 43 44 46 49 51 53 55
32 26 30 30 39 51 51 50 56 67 84 98 100 99 100 100 101 102 98 91 80 70 66 67 72 79 83 84 86 87 88 92 90 77 59 44 39 38 37 36 37 36 36 36 34 34 35 34 34 35 34 31 32 34 37 37 38 39 38 37 38 38 38 40 41 40 41 41 39 39 40 41 42 42 42 42 42 42 43 43 43 43 44 45 47
24 25 29 29 42 58 60 56 57 62 78 96 100 99 99 100 100 101 100 94 83 76 72 70 73 80 83 86 90 91 92 94 91 77 58 45 40 40 38 37 38 39 39 38 36 36 36 35 35 35 33 31 32 33 34 35 34 34 33 34 35 36 38 40 41 41 41 40 39 39 38 39 40 40 41 41 42 43 44 44 44 44 43 42 41
22 26 28 26 39 59 68 63 57 62 79 97 101 98 99 99 99 101 100 92 82 79 77 75 79 83 84 86 90 91 91 92 90 77 58 46 43 41 38 39 41 42 42 41 40 39 38 37 35 33 32 31 30 31 31 32 32 32 32 34 36 38 40 40 39 39 38 38 37 36 35 35 36 36 37 37 37 40 42 42 43 42 42 42 40
23 26 26 25 34 56 70 66 60 66 83 97 101 99 99 100 100 101 99 89 81 79 76 76 81 86 86 85 86 89 91 92 89 78 60 47 43 40 39 41 43 44 44 42 41 40 39 37 34 30 29 29 29 29 29 30 31 32 33 35 38 39 40 40 39 39 39 39 38 36 35 35 34 33 34 33 33 34 35 37 38 38 39 40 39
24 24 25 24 30 50 66 64 61 70 83 95 101 100 99 100 100 101 97 87 79 78 76 73 76 82 86 84 82 87 92 93 92 82 62 47 42 40 41 44 45 45 45 43 42 42 39 36 33 30 29 30 29 29 31 31 31 32 32 33 35 35 36 36 35 35 35 34 33 31 30 30 29 29 28 28 28 29 30 31 33 33 33 34 35
23 22 25 24 27 46 62 61 61 71 82 91 99 99 99 100 101 100 94 83 78 80 77 71 69 73 79 81 82 85 91 95 96 86 65 49 43 42 43 46 46 45 45 43 43 41 36 33 32 29 29 30 30 31 32 32 33 34 34 34 35 34 34 34 33 32 30 29 27 25 24 23 22 21 21 21 21 22 23 25 27 29 31 32 31
Wind_Speed
25 28 30 35 37 35 35 38 40 43 45 44 44 44 44 43 42 41 38 36 37 35 34 36 35 32 35 40 44 45 43 41 41 40 39 38 38 38 38 38 37 37 36 35 34 32 31 30 30 29 28 29 29 31 32 33 33 34 35 35 36 37 37 36 35 33 32 30 28 27 25 24 22 22 22 23 23 24 26 27 28 29 31 32 33
25 28 30 34 37 37 36 38 41 43 45 47 46 45 45 46 44 42 40 39 40 40 38 39 40 37 37 41 44 45 44 43 43 42 41 41 41 41 41 40 39 39 38 37 36 34 33 32 32 31 30 30 31 32 32 33 33 33 33 34 34 33 32 31 28 26 24 22 20 19 18 19 20 21 22 22 23 23 24 26 27 29 31 32 32
26 28 30 33 37 38 37 37 40 43 44 46 47 47 47 47 46 44 42 41 41 41 42 43 43 41 39 40 42 45 46 44 43 43 43 44 44 44 43 42 41 40 39 38 37 36 35 34 34 33 33 33 33 33 33 33 33 32 32 32 31 30 28 26 24 22 19 17 15 15 16 17 18 22 23 22 22 23 24 25 25 26 27 27 27
26 28 31 33 36 39 39 39 40 42 44 45 46 48 48 48 48 46 45 44 42 41 42 44 45 44 43 43 43 46 47 46 45 44 44 45 45 45 44 43 42 41 40 40 39 38 37 36 36 36 35 35 35 34 34 33 32 31 30 29 28 27 26 25 23 20 18 16 15 15 16 17 17 21 24 23 23 24 25 25 24 24 24 24 23
27 28 30 33 36 38 40 41 40 41 43 45 46 47 48 49 50 50 48 47 44 43 44 46 46 45 44 44 46 47 47 48 48 47 46 45 45 45 45 44 43 42 42 42 41 41 40 39 38 37 37 36 36 35 34 33 33 31 29 27 27 27 26 25 22 20 18 17 17 17 16 16 17 19 22 21 22 25 26 26 25 23 23 22 22
28 28 30 32 35 38 40 42 42 42 42 45 47 48 48 49 51 52 52 51 48 45 45 47 49 49 47 45 47 48 48 49 49 49 49 48 47 46 45 45 45 45 45 45 44 43 43 41 40 39 38 37 36 36 35 35 34 32 30 28 28 29 28 26 24 23 21 20 20 20 19 20 20 20 21 21 21 23 25 25 25 24 23 23 22
30 30 31 32 35 38 40 42 43 45 44 45 47 49 49 50 51 52 53 54 52 48 46 47 50 52 51 49 49 50 50 50 50 51 51 50 49 48 47 46 46 47 48 47 46 45 44 43 41 39 38 37 37 36 36 36 37 35 32 30 31 32 31 29 28 27 25 24 24 24 24 25 25 25 24 23 22 23 25 25 25 25 24 24 24
31 32 33 34 35 38 41 42 43 46 47 47 48 49 51 52 52 53 54 55 56 54 51 51 51 52 52 51 51 52 53 53 52 51 51 51 51 50 50 49 48 49 49 49 48 47 45 44 43 41 40 39 38 37 36 36 37 37 35 33 33 35 35 34 33 31 29 28 28 28 29 29 30 30 29 27 26 25 26 25 24 25 26 26 26
32 33 34 35 37 38 40 43 44 45 48 49 49 50 51 52 54 54 55 56 57 57 57 56 55 55 54 53 52 53 54 55 54 53 52 52 52 52 52 51 51 50 50 50 49 48 47 46 46 44 43 42 41 39 38 36 36 37 37 36 35 35 36 37 36 35 34 33 32 32 32 32 33 34 33 31 30 29 28 27 25 26 28 28 27
30 33 35 37 38 39 40 43 45 47 48 49 50 51 52 53 54 56 56 57 57 58 58 58 58 57 56 55 54 54 55 55 55 55 54 54 53 54 53 53 53 52 52 51 51 50 49 49 48 48 47 46 44 43 41 40 39 38 38 38 37 36 36 37 38 39 39 38 37 36 35 35 36 37 37 35 33 31 30 29 28 28 29 28 27
25 29 33 36 38 40 41 43 44 47 49 51 51 52 53 54 56 57 57 58 58 59 59 59 58 58 57 56 55 54 55 55 55 55 55 54 54 55 55 54 54 54 54 53 53 52 51 51 50 50 50 49 48 47 46 45 44 43 42 41 41 40 39 39 39 40 40 40 40 39 37 38 39 40 39 37 35 32 30 30 29 28 28 28 28
19 23 28 32 36 39 41 43 45 47 49 51 53 54 55 56 57 58 58 59 60 61 61 61 60 60 59 58 57 56 56 56 56 55 55 55 55 55 55 55 55 55 55 55 54 54 53 52 52 52 52 52 52 51 50 49 49 48 48 47 47 46 45 44 43 42 42 42 42 41 41 41 41 41 39 37 34 31 29 27 27 26 26 27 28
16 19 22 26 31 36 39 42 45 47 48 50 53 55 56 57 58 59 59 60 61 62 63 63 63 63 62 62 61 60 59 58 57 57 57 57 57 57 57 57 56 56 56 55 55 55 54 54 53 54 54 54 54 53 53 53 52 52 51 52 52 51 50 49 48 46 45 44 44 44 44 43 42 41 38 35 33 31 29 27 25 25 24 24 26
17 18 20 23 26 31 35 39 42 45 48 50 52 54 56 58 60 60 60 60 61 62 62 64 65 65 65 64 64 63 63 62 61 60 59 59 58 58 58 58 58 58 58 57 56 56 55 55 55 55 55 55 55 55 55 56 55 55 55 54 54 54 53 53 52 50 49 48 47 47 46 44 42 40 37 35 34 32 30 28 26 25 24 22 23
17 18 20 21 24 27 30 34 38 41 45 48 51 53 55 57 59 61 62 62 63 63 63 64 65 65 66 66 66 66 66 65 65 64 63 62 61 61 60 60 60 60 60 59 59 58 58 57 57 56 56 56 56 56 56 57 57 58 57 57 57 56 56 55 54 53 52 51 50 49 48 47 44 41 38 36 35 34 32 30 27 26 25 24 23
19 19 20 22 23 24 27 30 33 37 40 44 47 51 54 56 58 60 61 63 64 65 65 66 66 66 66 67 67 67 67 67 68 67 67 66 65 65 64 63 62 62 62 62 61 60 60 60 59 59 58 58 58 58 58 58 59 59 59 59 58 58 58 57 56 55 54 53 52 51 50 49 48 45 41 39 37 36 34 32 30 29 28 28 27
21 21 22 23 24 24 25 26 29 33 36 40 43 46 50 53 56 58 59 61 64 66 67 68 69 69 68 68 68 68 68 69 69 69 69 69 69 68 68 67 66 65 65 64 64 63 63 63 62 62 61 61 61 61 60 60 61 60 60 60 60 60 60 59 58 57 57 56 54 53 52 51 50 48 46 43 41 40 38 36 35 34 33 32 31
24 24 24 25 25 25 25 25 27 29 33 36 40 43 46 49 52 55 57 59 62 64 66 68 69 71 71 70 70 70 70 70 70 70 70 70 71 71 71 70 70 69 69 68 68 67 66 65 65 65 64 64 64 63 63 63 63 63 63 62 62 62 62 61 61 60 60 59 58 57 55 54 53 51 50 48 46 45 43 42 40 39 38 36 34
26 26 26 26 26 26 26 26 27 29 30 33 36 40 43 46 48 51 54 57 59 62 64 66 69 71 71 71 72 73 73 73 73 72 72 72 72 72 72 72 72 72 72 72 71 71 70 69 68 68 67 67 67 67 66 65 65 64 64 64 64 64 64 64 63 63 62 62 61 60 59 58 56 55 53 51 50 49 47 46 44 42 41 39 37
28 28 29 28 28 28 28 27 28 30 30 31 33 35 39 43 46 48 51 54 56 59 62 64 67 69 71 72 72 74 75 76 76 75 75 74 74 74 74 74 74 74 74 74 74 74 73 73 72 71 71 70 70 70 69 68 67 66 66 66 66 66 67 67 66 66 66 65 64 63 62 62 60 59 57 54 52 51 50 49 47 45 44 43 41
29 30 31 31 31 30 30 29 29 30 31 32 32 33 35 39 42 45 48 51 53 56 58 61 64 67 69 70 71 73 75 76 77 77 77 77 76 76 76 76 76 76 76 76 76 76 76 76 75 75 74 74 73 73 72 71 70 69 68 68 68 68 68 68 68 69 68 67 67 66 65 65 63 62 61 58 57 55 53 53 51 50 49 48 47
30 31 33 34 34 33 32 32 31 31 31 32 33 34 34 35 38 41 44 47 50 52 55 58 60 63 65 67 69 71 74 76 77 78 78 78 78 79 79 79 79 78 78 78 78 78 78 78 78 78 77 77 77 76 75 74 73 72 71 70 70 70 70 70 71 71 70 69 69 68 68 67 66 65 64 63 62 60 57 57 56 54 53 51 51
32 31 32 35 36 36 35 34 33 32 32 32 33 34 34 35 36 38 41 43 46 48 51 53 56 58 60 62 65 67 70 72 74 77 78 79 80 81 80 80 80 80 79 80 80 79 80 79 79 80 80 80 80 79 78 78 77 76 75 74 73 73 72 72 72 73 72 71 71 71 70 69 68 67 67 66 65 64 61 60 59 57 55 54 53
35 32 32 33 36 38 38 37 35 34 33 33 33 34 34 34 35 38 39 41 43 45 47 49 50 52 54 57 59 62 65 66 69 72 74 77 79 80 81 81 80 80 80 80 81 81 81 82 82 82 82 82 82 82 81 81 80 80 79 78 77 76 76 75 75 75 74 74 74 74 73 72 71 71 71 69 68 67 65 63 62 61 58 56 55
39 35 32 33 35 37 39 39 37 35 35 34 34 34 34 33 34 36 38 40 41 42 44 45 47 48 50 52 54 56 58 60 62 64 67 69 72 74 76 78 79 80 81 81 82 82 83 83 84 85 84 84 84 83 83 83 83 83 83 82 81 81 80 80 79 79 78 78 77 77 77 75 74 74 74 73 71 69 68 67 65 63 61 59 58
43 38 34 33 34 36 38 39 38 37 36 35 35 35 35 34 33 34 37 39 40 41 41 42 44 46 48 50 51 52 53 55 57 58 59 61 63 66 68 71 73 76 78 80 82 83 83 84 86 87 87 86 86 85 85 85 85 85 85 85 85 84 84 84 84 83 83 82 81 80 79 78 77 77 77 76 74 72 71 70 68 66 65 63 62
47 42 37 35 34 35 37 39 38 37 36 35 35 35 35 35 34 34 35 37 39 39 39 39 41 43 46 47 48 48 49 51 52 54 54 55 57 60 62 64 65 67 70 74 79 82 83 84 85 86 88 89 88 88 88 88 88 88 88 87 87 87 87 87 87 86 86 85 84 83 82 81 80 80 79 79 78 76 74 73 72 70 69 68 67
50 44 40 38 36 35 36 38 38 37 36 35 35 35 35 35 35 35 35 36 37 38 37 38 38 40 42 43 44 45 46 48 49 50 51 52 54 56 58 59 60 62 64 66 69 74 78 81 82 83 85 88 89 90 91 91 91 91 91 91 90 90 90 90 89 89 89 88 87 86 85 84 83 83 82 82 81 79 78 77 76 75 73 73 72
53 47 42 40 38 36 35 36 38 38 37 36 36 35 35 35 35 35 35 36 37 37 37 37 37 38 39 39 40 42 43 44 45 47 48 49 51 53 55 56 58 60 63 64 63 65 68 71 75 77 80 83 86 89 91 92 92 93 93 93 92 92 92 92 92 92 91 91 90 89 89 88 87 86 86 85 84 83 82 81 81 80 79 78 77
56 51 45 41 40 39 37 36 37 39 39 38 37 36 35 35 35 36 35 35 36 37 37 37 37 36 36 37 38 39 40 41 43 44 45 46 48 50 53 53 54 57 62 64 65 64 63 63 65 68 72 76 80 84 87 90 91 92 93 93 93 93 93 93 93 93 93 93 92 92 92 91 91 91 90 89 88 87 87 87 86 85 84 83 82
59 54 47 42 40 40 39 37 37 39 39 39 38 36 35 35 35 36 35 35 36 37 37 37 36 35 35 36 37 38 39 40 42 43 43 43 45 47 49 51 53 56 60 63 66 66 65 64 64 65 66 68 72 76 80 83 85 86 87 89 90 91 92 92 93 93 93 93 93 93 94 93 93 94 93 93 93 92 91 90 90 89 87 86 84
61 56 49 44 41 41 40 38 38 38 40 40 39 38 37 36 36 35 35 35 36 36 36 36 35 34 34 36 37 38 39 39 40 42 42 42 42 43 45 48 50 52 55 58 60 63 65 65 65 65 64 64 65 68 71 72 73 74 76 78 80 82 84 85 86 87 87 89 90 91 93 94 94 95 95 95 94 94 93 93 92 91 90 88 86
62 57 50 45 42 41 41 40 38 38 39 40 40 40 39 38 36 35 34 35 36 37 37 35 35 34 34 35 36 37 38 38 38 40 40 40 40 40 41 42 42 43 47 51 54 58 61 61 62 61 60 60 61 62 63 63 64 65 66 67 68 70 72 73 74 75 76 77 79 81 84 87 89 91 93 93 93 93 93 93 92 92 91 90 88
63 58 52 47 43 41 41 41 39 38 39 40 41 42 41 39 37 36 35 35 36 37 37 36 35 34 33 34 35 36 37 37 37 38 39 39 39 38 39 40 40 40 44 49 53 56 58 58 58 58 58 58 60 60 61 61 61 62 63 64 65 66 67 68 69 70 70 70 71 71 72 74 77 81 85 87 89 90 90 90 91 91 91 91 89
63 59 53 48 44 42 42 41 40 39 39 41 43 43 42 40 38 37 36 36 36 36 37 37 36 34 33 33 34 35 36 36 36 37 38 38 38 37 37 38 41 44 47 51 54 56 58 59 59 59 58 59 60 61 62 62 63 63 65 66 68 68 69 69 69 68 68 68 68 67 68 69 69 71 75 78 82 85 87 88 88 89 90 90 89
63 59 53 50 45 42 42 42 40 39 40 42 44 43 42 41 40 39 38 36 36 37 38 38 37 36 34 34 34 35 35 35 36 36 37 38 38 38 36 36 40 44 47 50 54 56 59 61 62 63 63 63 63 63 63 64 65 66 67 69 70 71 71 70 69 68 67 66 66 66 67 68 69 69 69 72 74 77 81 84 86 87 88 89 89
63 58 53 50 46 42 42 41 39 39 40 42 43 44 43 43 42 41 39 36 37 38 39 40 39 38 36 35 35 35 34 34 35 36 37 37 38 38 37 37 39 40 41 44 48 53 57 61 64 66 66 66 66 65 65 66 67 68 69 71 72 72 72 71 70 69 68 68 67 67 67 69 70 70 70 70 71 72 74 78 81 84 86 87 88
63 58 53 51 46 43 41 40 39 39 40 41 42 44 45 46 45 43 40 38 37 38 39 41 41 39 37 36 36 35 33 33 34 35 36 37 37 37 37 37 37 38 39 40 43 47 53 58 63 66 67 66 65 64 64 65 66 68 70 72 73 74 74 74 73 72 72 71 71 71 71 71 72 72 71 72 72 73 73 74 77 80 83 85 87
63 58 53 50 47 43 41 40 39 39 40 41 43 45 47 47 46 45 42 39 39 38 40 42 42 40 38 37 36 35 33 33 33 34 34 34 34 34 35 36 35 36 38 39 41 45 48 51 56 60 62 62 63 63 63 63 64 66 69 71 73 74 75 75 75 75 75 75 75 75 75 75 75 74 74 73 74 75 75 76 77 78 80 83 86
64 58 53 50 47 44 41 40 38 39 41 42 44 46 47 47 46 45 43 41 40 40 40 41 41 40 39 38 36 35 33 33 33 33 33 33 32 32 33 34 35 36 37 37 40 42 43 44 47 50 53 56 57 58 59 60 62 65 68 70 72 74 74 75 76 76 76 76 76 75 75 75 75 75 74 74 74 75 76 78 79 79 80 82 85
65 58 52 50 48 45 42 40 39 40 42 43 44 45 47 47 46 45 43 42 40 40 40 39 38 38 38 38 36 34 33 33 33 33 33 32 31 30 31 33 34 35 36 37 38 39 39 39 41 42 45 48 49 50 52 54 56 60 63 66 67 69 70 70 71 71 70 69 69 69 69 70 71 71 71 71 71 71 72 74 77 80 81 82 84
66 59 53 49 48 46 43 41 40 41 43 43 43 45 47 47 46 45 44 43 40 38 38 37 36 36 36 36 36 33 32 33 34 34 33 32 30 30 31 32 33 34 34 35 36 36 36 36 37 38 41 45 46 47 48 49 51 53 55 58 60 61 63 63 63 63 62 62 62 63 63 65 66 67 67 68 68 68 69 70 72 75 78 81 82
65 59 54 50 47 46 44 41 40 41 43 43 43 45 47 46 45 44 45 43 40 37 36 35 34 34 34 35 35 33 32 33 34 34 33 31 30 30 31 31 32 33 33 33 33 34 35 35 37 40 43 45 46 46 46 47 49 51 54 55 56 58 59 60 60 60 59 59 60 60 60 61 62 63 64 65 66 66 67 68 68 70 73 76 78
64 58 55 50 47 46 45 43 41 42 43 43 43 45 47 45 45 45 45 43 40 37 35 34 33 33 33 34 34 33 32 33 34 34 33 31 30 30 30 31 32 33 33 32 32 33 34 36 38 41 43 43 44 45 45 47 49 52 54 55 56 57 58 59 60 60 59 59 59 59 60 60 61 62 62 63 63 63 64 66 67 68 70 71 73
62 57 55 52 48 46 45 43 42 42 42 42 43 46 47 45 45 47 46 44 41 37 35 34 34 33 32 33 33 32 32 33 34 34 33 31 30 30 30 31 31 32 32 32 32 33 35 37 38 40 42 42 41 41 44 46 48 51 54 55 56 56 57 58 58 59 59 59 58 59 59 61 62 62 63 63 62 62 62 63 64 66 68 69 71
61 55 54 52 49 46 45 44 43 43 43 42 44 46 47 46 45 47 46 45 42 38 36 35 35 34 32 32 31 32 32 34 34 33 32 31 31 30 31 30 30 31 32 33 33 34 36 37 38 39 41 41 40 40 43 45 46 49 51 52 52 53 54 55 56 57 57 57 57 57 58 59 61 63 63 63 63 62 62 63 63 64 65 67 68
61 55 53 52 50 48 46 45 45 45 44 44 45 47 48 47 47 47 47 45 43 39 37 35 35 35 33 32 31 32 33 34 34 33 32 31 30 30 30 30 29 30 32 34 35 35 36 37 38 39 40 40 40 40 43 44 46 48 48 49 49 50 51 52 54 55 56 56 56 56 57 58 59 61 62 63 63 63 63 64 65 65 65 65 66
61 56 53 51 50 50 48 46 45 45 45 45 46 47 47 48 48 49 49 47 43 40 38 36 36 36 35 33 32 33 33 33 33 32 31 30 29 29 29 29 29 31 33 34 35 35 36 37 38 39 39 40 40 41 42 43 45 46 46 46 47 48 49 51 53 54 55 56 57 57 57 58 59 60 61 62 62 62 63 64 65 66 66 66 66
60 57 54 51 51 51 49 47 45 45 45 45 45 46 47 48 49 50 50 48 44 41 39 37 35 36 36 34 33 32 33 33 32 31 31 30 30 29 29 29 30 31 33 34 34 35 36 37 38 39 38 39 41 41 41 42 43 44 44 44 45 46 48 49 51 52 53 54 56 56 57 57 58 59 60 61 61 62 62 63 65 65 66 66 67
60 57 55 53 51 51 51 49 47 46 46 46 45 46 48 49 51 52 51 49 45 42 40 38 35 35 36 35 33 31 32 32 32 31 30 30 30 29 28 29 30 32 33 33 34 34 36 37 39 39 38 38 39 39 39 40 40 40 40 40 41 42 43 44 45 46 48 49 51 52 53 54 55 56 57 58 60 60 61 62 63 64 65 65 66
61 58 55 53 52 52 52 51 49 49 49 49 48 47 48 50 52 53 53 50 45 42 41 39 35 34 36 36 34 32 31 32 32 31 30 30 30 29 28 29 30 31 32 32 33 34 35 36 37 36 35 34 34 33 32 32 32 33 33 33 34 35 36 37 38 39 40 42 43 44 45 47 48 50 51 52 54 56 58 59 61 62 64 65 65
Wind_Direction
218 215 211 207 204 200 199 200 200 202 203 205 206 206 209 215 219 220 220 218 216 213 211 208 207 215 225 225 225 227 226 226 224 221 219 219 220 222 223 225 226 228 229 230 231 231 231 231 232 233 233 233 233 234 236 238 239 240 241 242 242 243 245 247 251 253 253 255 257 260 264 269 272 274 277 279 279 279 278 278 279 281 282 283 283
221 218 215 212 209 205 202 205 205 206 207 208 209 210 212 215 217 219 220 220 220 220 219 217 215 221 228 226 225 226 226 228 227 224 222 221 222 224 226 227 228 229 231 232 233 234 234 234 236 237 239 238 237 237 238 240 242 243 245 246 246 246 246 245 245 244 242 243 245 253 262 269 275 277 278 280 281 282 282 281 281 281 281 281 281
223 221 219 216 214 211 206 207 209 209 210 211 211 212 215 216 216 216 218 219 221 222 223 223 223 226 231 230 228 227 227 229 229 228 226 225 226 228 229 230 230 230 232 234 235 235 235 237 239 240 242 243 242 241 241 243 245 245 246 248 249 246 241 237 234 231 230 231 239 248 256 264 273 275 275 276 280 284 286 286 285 283 281 279 279
226 223 222 219 218 217 212 208 211 212 213 215 214 214 216 217 218 217 217 218 221 225 226 226 227 230 233 233 232 230 229 229 230 230 229 229 230 231 231 232 231 231 233 236 237 237 237 238 240 242 243 244 244 243 243 244 246 246 245 245 244 239 233 229 228 230 231 233 238 244 255 263 268 271 274 276 278 281 283 285 286 285 282 278 277
228 226 224 223 222 222 219 213 212 214 216 217 218 217 217 218 218 219 219 220 223 227 229 229 229 230 233 234 233 232 232 232 232 231 231 231 232 233 233 233 232 232 233 236 238 239 240 240 240 242 242 243 243 244 244 244 244 244 242 240 235 231 229 229 231 235 236 236 238 243 254 260 258 263 273 277 278 280 280 282 284 284 282 279 278
228 227 225 224 224 224 225 221 216 215 217 219 221 221 220 220 219 220 221 223 224 227 228 229 230 230 232 234 234 233 234 234 234 234 234 233 233 234 234 234 234 233 233 235 237 239 241 241 241 241 241 242 243 244 245 244 243 242 241 238 234 232 232 233 235 238 238 237 239 241 245 250 253 260 270 276 281 284 281 281 284 285 282 281 280
229 227 226 224 224 225 226 226 223 219 218 220 223 224 224 223 223 222 222 223 224 225 225 226 228 229 231 233 233 233 235 235 236 236 236 236 235 235 235 235 234 234 234 234 235 237 239 241 241 240 240 241 243 244 246 246 245 243 241 239 237 236 237 239 240 241 241 240 239 241 244 250 257 264 270 276 282 283 281 282 284 284 282 281 281
230 229 227 226 225 224 225 226 226 225 222 222 223 225 226 226 227 226 225 224 224 225 225 224 226 228 230 232 232 232 233 235 236 236 237 236 236 236 236 236 235 235 235 235 235 235 237 239 240 240 240 240 241 242 244 246 248 247 245 243 240 239 240 243 244 243 243 243 242 244 249 255 261 267 271 276 280 282 281 280 280 281 282 282 281
229 230 229 228 227 226 225 225 226 227 227 226 225 225 227 228 229 230 229 229 228 228 227 227 227 229 230 232 232 231 232 233 234 235 236 236 236 235 235 236 236 236 235 235 235 235 235 236 238 239 239 239 240 239 239 240 243 246 248 248 246 244 244 245 246 245 245 246 247 249 253 258 263 267 271 274 278 282 281 277 273 274 277 279 280
229 230 229 229 229 229 228 227 227 227 229 230 229 228 227 229 230 232 232 233 233 233 233 233 232 233 233 234 233 233 233 234 235 235 236 236 237 236 236 236 236 236 236 236 236 235 236 237 237 239 239 240 240 239 238 236 236 239 243 246 247 247 247 247 248 248 248 250 252 253 256 260 264 268 271 274 277 280 280 275 270 270 272 275 277
234 233 232 231 230 230 230 230 230 229 229 230 232 232 231 230 230 231 233 234 235 237 238 238 238 238 237 236 236 235 235 235 236 237 237 238 238 238 239 239 239 239 239 239 238 238 238 238 239 239 239 240 241 241 241 239 237 237 238 240 243 244 246 248 249 251 253 255 256 258 259 262 266 269 272 275 277 277 277 274 271 270 271 274 276
246 242 239 236 233 231 230 231 231 231 231 231 231 233 234 234 233 232 232 233 234 236 238 239 240 240 239 239 238 237 237 237 237 238 238 239 239 239 240 240 242 243 243 243 243 243 242 242 241 241 241 241 242 242 243 243 241 241 240 241 241 242 244 247 249 251 254 256 258 259 260 263 266 269 272 274 274 273 273 272 271 269 270 273 275
259 253 248 244 240 235 232 232 231 232 232 233 233 233 234 236 237 237 236 235 235 235 236 238 239 240 240 240 240 239 238 238 238 238 239 240 240 241 241 242 242 243 244 245 246 247 246 246 246 245 244 243 243 244 244 244 244 243 243 243 244 244 245 246 248 250 252 255 257 259 260 263 266 268 270 270 269 268 268 269 271 271 272 273 274
270 263 257 253 249 244 239 235 234 233 232 233 234 234 234 235 237 238 240 240 239 238 238 238 239 239 240 241 241 241 241 240 240 240 240 240 240 242 243 243 244 244 244 245 246 247 247 247 247 247 246 246 245 245 245 245 245 245 245 245 246 246 246 247 248 249 251 253 256 258 260 262 264 265 266 266 266 265 265 265 267 271 273 274 276
280 273 267 261 256 251 247 242 239 236 235 234 233 234 235 236 236 237 239 241 242 242 241 241 240 240 240 241 242 242 243 243 243 242 242 242 242 242 242 243 244 245 246 246 246 246 246 246 246 246 246 246 246 246 246 246 245 246 246 246 247 247 248 248 249 250 251 253 255 257 259 260 262 262 263 263 264 264 264 263 264 267 271 276 280
284 280 276 271 265 259 254 249 245 242 239 237 236 235 234 235 236 237 238 240 241 243 244 244 244 243 241 241 242 242 243 243 244 244 244 244 244 244 243 243 244 245 246 246 246 246 246 246 246 246 245 245 246 246 246 246 246 246 247 247 248 248 249 250 250 251 252 253 255 256 258 259 261 261 261 261 262 263 263 263 263 266 270 274 278
283 281 278 276 273 269 264 257 251 246 243 241 239 238 236 235 235 236 238 240 241 242 243 244 246 246 245 244 243 242 242 243 244 244 245 245 245 245 245 245 245 245 246 246 246 246 246 247 247 247 246 246 246 246 245 246 246 247 247 248 248 249 250 250 251 251 252 253 254 256 257 258 260 261 260 260 260 261 262 263 265 268 271 273 274
280 279 277 276 275 274 272 268 262 255 247 243 241 240 239 238 237 236 237 238 240 242 243 243 244 246 247 247 246 246 245 244 244 244 244 245 245 245 245 245 245 245 246 246 246 247 247 247 248 248 248 247 247 246 246 245 245 246 247 248 249 250 250 251 251 251 252 253 254 255 256 258 259 260 260 261 260 260 262 264 267 269 271 272 272
279 276 275 274 274 275 274 273 270 265 257 250 244 241 241 240 238 237 237 237 239 240 242 243 244 245 246 246 246 247 247 247 246 245 245 244 244 245 245 246 246 246 246 246 247 247 248 248 249 249 249 249 249 248 248 247 246 246 246 247 248 249 250 251 251 252 252 253 254 255 256 257 258 259 260 261 260 260 262 264 266 268 270 271 271
280 274 273 273 273 274 274 273 271 270 267 262 254 247 243 242 240 238 238 238 238 239 240 242 243 244 245 246 246 246 247 248 248 248 247 246 246 245 246 246 246 246 246 247 247 248 248 249 249 249 250 250 250 250 250 250 249 249 248 248 248 248 249 250 251 252 253 254 254 255 256 257 258 259 259 259 260 260 262 264 264 266 268 270 272
287 278 274 274 274 274 274 273 272 271 271 269 266 260 252 247 244 241 239 239 239 239 240 241 242 243 245 245 246 246 246 247 248 248 249 249 248 248 247 247 246 246 246 247 247 247 248 249 249 249 250 250 250 251 251 251 251 251 250 250 249 249 249 250 251 252 253 254 255 255 256 257 258 259 259 259 259 259 261 263 264 266 269 270 272
294 285 278 276 276 275 274 273 274 274 273 272 271 269 264 257 251 246 243 241 240 241 241 241 242 243 244 245 246 246 246 247 247 248 248 249 249 249 249 248 248 247 247 247 247 247 248 248 249 249 250 250 251 251 251 252 252 252 251 251 251 251 251 251 252 252 253 254 254 255 256 256 257 258 259 259 259 259 260 262 265 266 268 269 271
299 292 285 281 279 277 275 274 274 275 275 275 275 274 271 266 259 253 249 245 242 242 242 243 243 243 244 245 246 247 247 247 247 247 248 248 249 250 250 250 250 250 249 249 248 248 248 249 249 249 250 250 251 251 252 252 252 252 252 252 251 251 251 252 252 253 253 254 254 255 255 256 256 257 257 258 259 259 260 261 264 265 266 268 269
303 297 293 288 283 279 276 274 273 274 276 277 278 277 275 271 265 258 254 251 247 245 244 244 245 245 245 246 246 247 247 248 247 247 248 248 249 250 250 251 251 251 251 251 251 250 249 249 249 249 250 250 250 251 251 252 252 252 252 252 252 252 252 252 252 252 253 253 254 255 255 255 256 256 256 256 257 258 259 260 261 263 265 266 267
310 303 297 292 286 279 275 273 273 273 275 277 279 280 279 276 270 262 258 255 252 249 247 246 247 247 247 248 248 248 248 249 249 249 249 249 250 250 251 251 251 252 252 252 252 251 251 250 250 250 250 250 250 250 251 251 252 252 252 253 253 253 253 253 253 253 254 254 254 255 256 256 256 256 256 256 256 256 257 258 259 261 263 264 264
317 309 302 296 291 284 277 274 273 273 275 277 280 282 283 281 276 267 261 258 256 254 251 249 248 248 249 249 249 249 250 251 252 252 252 251 251 252 252 252 252 252 252 252 252 252 251 251 250 250 250 250 250 251 251 251 252 252 252 253 253 253 254 254 254 255 255 255 255 255 255 256 256 256 257 257 256 255 256 256 257 259 261 262 263
322 312 304 299 295 290 283 277 274 273 275 277 280 283 284 284 281 272 265 262 260 258 256 253 250 249 249 249 251 252 252 252 252 253 253 252 252 252 252 252 252 252 252 252 251 251 251 251 251 250 250 250 250 250 251 251 251 252 252 253 253 253 253 254 254 255 255 255 255 255 255 255 255 255 256 256 256 255 255 256 256 257 258 260 262
323 314 304 299 296 292 287 281 276 274 274 276 279 281 283 284 284 278 270 267 265 263 260 257 255 253 251 251 252 252 252 253 253 253 253 253 253 253 252 252 251 251 252 253 253 252 251 251 251 250 250 250 250 250 250 250 251 251 251 252 252 253 253 254 254 254 255 255 255 255 255 254 254 254 255 255 255 255 254 255 256 256 257 259 260
323 315 304 297 295 293 289 283 277 274 274 275 277 279 281 284 285 281 273 268 267 265 263 261 260 258 257 256 255 254 254 254 254 253 253 252 252 253 253 253 252 251 251 251 252 252 252 252 251 250 250 250 250 250 250 250 250 250 250 251 251 252 253 254 254 255 255 255 256 256 256 255 255 255 254 254 254 254 254 254 255 256 257 258 259
323 316 305 297 294 293 290 283 276 274 274 275 276 278 280 283 286 283 276 269 267 266 265 264 263 262 262 261 261 261 260 260 258 257 255 254 254 253 253 252 251 250 250 248 248 250 251 252 252 251 250 250 250 250 250 250 250 250 250 250 251 252 252 253 254 254 255 256 256 257 257 257 257 257 256 256 255 254 254 254 254 255 256 256 257
322 318 307 298 294 292 290 282 274 272 273 274 276 278 280 282 285 285 280 272 268 268 266 265 265 265 264 264 264 263 263 264 264 263 261 259 258 257 255 253 251 251 250 248 246 248 249 251 251 252 253 253 251 250 250 250 251 251 252 252 252 252 253 253 254 254 255 256 256 257 257 257 257 257 257 257 256 256 255 255 255 255 255 256 256
321 318 308 299 294 291 289 283 274 272 272 274 277 278 280 281 282 283 281 275 270 269 268 266 266 266 265 264 264 263 263 264 265 266 265 263 262 260 259 258 255 253 251 248 247 247 249 250 252 254 256 255 254 253 252 252 252 253 253 253 253 253 254 254 255 255 256 256 256 257 257 257 257 257 257 257 257 256 256 256 256 256 256 255 255
320 316 308 300 294 290 289 283 274 271 272 274 276 277 279 280 280 281 281 277 273 270 268 267 266 265 264 264 264 264 264 265 267 268 269 268 266 264 262 259 255 253 252 251 250 250 251 253 256 258 258 258 257 257 257 256 256 255 255 255 255 255 255 255 255 255 256 256 256 257 257 257 257 257 256 256 256 256 256 256 256 256 255 255 254
319 315 306 300 295 291 288 282 273 269 270 272 274 275 277 279 279 279 281 280 276 272 270 268 265 264 264 264 264 266 266 267 269 271 272 271 269 267 265 261 256 253 254 255 255 256 257 258 260 261 261 260 260 260 260 260 259 257 257 257 257 258 258 258 257 257 257 257 257 257 257 257 256 256 256 255 255 255 255 255 255 255 254 254 254
318 314 305 299 295 291 288 283 273 267 267 269 271 274 277 278 278 279 281 282 280 276 272 269 267 265 264 264 264 265 266 268 270 272 274 274 272 269 266 263 259 256 256 257 258 259 260 260 260 261 261 261 261 261 262 261 260 259 258 258 259 259 260 260 260 260 259 259 259 258 258 257 256 256 256 256 255 255 254 254 253 253 253 253 252
317 312 302 298 295 290 287 283 273 266 265 267 270 273 276 278 278 279 280 282 283 280 274 270 269 266 265 263 263 263 265 268 271 274 275 275 273 271 266 262 260 259 258 258 259 260 260 260 260 261 261 261 262 263 263 263 262 261 260 260 261 261 262 262 263 263 262 262 261 260 258 257 256 256 256 256 256 255 254 253 253 252 252 251 251
315 310 300 296 294 289 287 283 272 264 264 267 271 274 276 278 279 279 280 281 283 281 276 271 269 267 266 264 262 262 263 267 270 273 275 275 273 271 268 264 263 263 261 258 258 258 258 259 260 261 261 262 263 264 264 264 264 263 262 262 263 264 265 266 266 266 266 265 264 264 262 260 258 257 256 255 255 255 255 254 253 252 251 251 250
314 308 299 295 292 287 285 281 271 263 262 266 269 272 274 276 278 279 280 280 281 281 278 273 269 267 266 264 263 262 262 264 267 271 274 275 273 272 270 268 266 265 262 259 258 258 257 257 259 260 262 263 264 264 265 264 264 264 264 264 264 265 266 267 268 268 267 267 267 267 266 265 263 261 258 256 255 254 254 255 254 252 251 250 250
312 307 299 293 289 285 283 278 268 260 261 264 266 268 271 273 276 278 279 279 281 282 280 275 271 269 268 266 265 265 264 265 267 271 273 274 272 272 271 270 268 265 263 261 260 260 260 259 259 261 263 264 265 266 266 266 265 265 264 264 265 266 266 267 268 268 268 268 268 268 268 267 266 264 261 259 257 255 254 254 253 252 251 249 249
310 306 298 292 287 283 281 275 265 257 257 261 264 266 269 271 274 276 278 279 281 283 281 276 272 271 270 269 267 267 268 268 270 273 275 273 271 271 271 271 270 268 265 263 263 265 266 266 266 266 266 266 266 266 267 267 266 265 265 265 265 265 266 266 266 266 266 267 267 267 266 266 265 264 262 260 258 257 256 254 253 251 250 249 248
308 304 297 291 285 280 277 272 263 256 255 258 261 265 268 270 273 275 278 279 280 282 281 277 272 270 270 269 268 268 270 272 273 275 275 274 272 270 270 270 270 269 269 268 268 269 270 270 270 269 266 266 266 267 268 267 266 266 265 265 265 265 266 266 266 265 265 265 265 265 264 264 263 262 262 260 259 258 258 256 253 251 250 249 248
306 302 297 291 283 278 275 269 261 256 255 256 259 263 266 269 271 274 277 278 279 281 282 278 272 268 267 267 266 266 269 272 273 275 276 276 275 273 273 273 272 270 270 270 271 271 269 267 266 264 265 268 268 268 267 266 265 265 264 264 264 264 264 264 264 264 264 264 264 264 263 263 262 262 261 261 260 260 259 258 256 254 252 250 249
304 300 295 291 283 277 272 266 258 255 255 256 258 262 265 268 271 274 276 278 279 281 281 277 271 266 264 264 265 266 268 270 272 275 278 278 276 275 276 277 276 274 274 274 274 273 271 267 266 267 270 271 271 270 270 268 266 265 264 263 263 263 263 263 264 264 264 264 264 263 263 263 263 262 262 261 261 260 260 259 258 257 255 253 252
302 297 293 290 283 276 271 264 256 253 254 255 258 261 264 268 271 273 276 278 279 279 279 274 268 263 262 263 265 266 267 270 272 275 278 278 276 276 277 277 276 277 277 277 276 275 273 272 272 273 273 272 271 271 271 270 268 267 266 266 265 265 265 265 266 266 266 266 265 265 265 265 264 264 263 262 261 260 259 258 258 257 257 256 254
299 293 291 289 283 276 270 263 256 252 252 253 256 260 263 266 270 272 275 278 279 279 278 273 266 262 260 261 264 266 268 270 272 275 278 278 276 276 277 277 278 279 280 280 279 278 277 277 277 277 275 274 273 272 271 268 267 266 266 266 266 266 266 267 267 267 267 266 265 265 264 264 264 263 263 262 261 260 259 258 257 257 256 256 255
295 290 287 285 280 275 269 263 257 252 250 251 254 258 262 264 267 271 274 277 278 278 278 274 267 262 261 261 264 267 269 270 272 275 277 277 276 276 277 279 281 283 284 284 284 283 282 282 281 280 279 278 277 275 272 270 268 266 266 266 267 267 268 268 268 268 267 266 265 264 262 262 261 261 261 261 260 260 259 259 258 257 256 255 254
291 287 284 280 277 273 268 262 257 252 250 249 252 256 260 263 265 268 272 275 276 278 279 276 269 262 261 261 263 266 268 269 271 274 276 275 274 275 278 281 284 286 287 288 288 287 285 284 283 282 281 281 280 277 275 273 271 271 271 271 271 271 270 270 269 269 268 267 267 265 263 262 261 260 260 259 259 258 258 258 257 257 256 256 255
287 284 281 277 273 269 265 261 256 251 248 248 250 254 258 261 264 267 269 272 274 276 278 278 271 264 261 261 262 264 266 267 269 273 275 274 274 275 279 283 286 288 289 289 288 288 287 285 284 283 283 284 282 280 278 277 276 275 275 275 274 273 272 271 271 270 270 270 269 268 267 265 264 263 262 261 259 258 256 256 256 255 255 255 255
283 281 278 273 269 265 262 259 254 249 246 246 249 253 257 260 263 265 268 270 272 273 275 276 271 265 262 260 260 261 264 266 269 273 275 275 275 277 281 285 288 289 289 288 288 289 289 288 288 288 288 287 285 283 282 280 279 278 278 277 276 275 274 273 273 273 272 272 271 270 269 268 267 265 264 263 261 259 257 256 255 255 254 254 254
281 278 274 271 266 261 259 256 252 247 243 243 246 251 254 257 260 262 265 267 269 272 273 273 270 266 263 261 259 260 263 266 269 272 274 275 276 278 282 286 288 288 288 289 290 291 292 292 293 293 292 290 288 286 284 282 281 281 280 279 278 276 276 275 274 274 273 272 271 271 270 269 267 266 265 263 262 260 258 257 256 255 254 254 253
279 275 272 268 264 259 256 254 250 246 242 240 242 246 250 253 256 259 262 265 268 270 271 271 269 267 264 261 259 259 262 265 268 271 274 274 275 277 281 284 286 286 287 289 291 292 294 297 298 298 296 293 289 286 284 283 282 282 281 281 280 279 278 278 277 276 275 274 273 272 271 270 268 267 266 264 262 261 259 257 255 254 254 253 253